Koksijde, Belgium

9:39 PM CET on December 03, 2016 (GMT +0100)
Ostend

Weather History for EBOS - November, 2012

Change the Weather History Date:

Sunday, November 11, 2012

  Actual Average Record
Temperature  
Mean Temperature 44 °F -  
Max Temperature 50 °F 50 °F 57 °F (2005)
Min Temperature 37 °F 40 °F 30 °F (2016)
Degree Days  
Heating Degree Days 22    
Moisture  
Dew Point 40 °F    
Average Humidity 86    
Maximum Humidity 93    
Minimum Humidity 71    
Precipitation  
Precipitation 0.00 in - - ()
Sea Level Pressure  
Sea Level Pressure 29.86 in    
Wind  
Wind Speed 7 mph ()    
Max Wind Speed 10 mph    
Max Gust Speed -    
Visibility 6.0 miles    
Events      
Averages and records for this station are not official NWS values.
T = Trace of Precipitation, MM = Missing Value Source: Averaged Metar Reports

Daily Weather History Graph

Daily Weather History Graph

Search for Another Location

Airport or City:

Trip Planner

Search our weather history database for the weather conditions in past years. The results will help you decide how hot, cold, wet, or windy it might be!

Date:

Astronomy

Nov. 11, 2012 Rise Set
Actual Time 7:59 AM CET 5:05 PM CET
Civil Twilight 7:22 AM CET 5:41 PM CET
Nautical Twilight 6:42 AM CET 6:21 PM CET
Astronomical Twilight 6:03 AM CET 7:00 PM CET
Moon 4:38 AM CET (11/11) 3:32 PM CET (11/11)
Length of Visible Light 10h 18m
Length of Day
9h 06m
Waning Crescent, 9% of the Moon is Illuminated
Nov 11
Waning Crescent
Nov 13
New
Nov 20
First Quarter
Nov 28
Full
Dec 6
Last Quarter

Hourly Weather History & Observations

Time (CET) Temp. Windchill Dew Point Humidity Pressure Visibility Wind Dir Wind Speed Gust Speed Precip Events Conditions
12:20 AM 46.4 °F 41.9 °F 42.8 °F 87% 29.59 in 6.2 mi SW 9.2 mph - N/A   Scattered Clouds
12:50 AM 46.4 °F 41.9 °F 42.8 °F 87% 29.59 in 6.2 mi SW 9.2 mph - N/A   Scattered Clouds
1:00 AM 46 °F - 43 °F 84% 29.61 in 12 mi SW 8.9 mph - -   Partly Cloudy
1:20 AM 46.4 °F 42.4 °F 42.8 °F 87% 29.59 in 6.2 mi WSW 8.1 mph - N/A   Partly Cloudy
1:50 AM 42.8 °F 38.6 °F 39.2 °F 87% 29.62 in 6.2 mi SW 6.9 mph - N/A   Partly Cloudy
2:20 AM 44.6 °F 40.7 °F 41.0 °F 87% 29.62 in 6.2 mi SSW 6.9 mph - N/A   Scattered Clouds
2:50 AM 42.8 °F 38.6 °F 39.2 °F 87% 29.62 in 6.2 mi SSW 6.9 mph - N/A   Scattered Clouds
3:20 AM 42.8 °F 38.0 °F 39.2 °F 87% 29.65 in 6.2 mi SSW 8.1 mph - N/A   Partly Cloudy
3:50 AM 42.8 °F 38.0 °F 39.2 °F 87% 29.65 in 6.2 mi SSW 8.1 mph - N/A   Partly Cloudy
4:00 AM 42 °F - 40 °F 89% 29.67 in 9 mi SSW 8.9 mph - -   Partly Cloudy
4:20 AM 42.8 °F 37.0 °F 39.2 °F 87% 29.65 in 6.2 mi SW 10.4 mph - N/A   Partly Cloudy
4:50 AM 41.0 °F 36.4 °F 39.2 °F 93% 29.68 in 6.2 mi SW 6.9 mph - N/A   Partly Cloudy
5:20 AM 39.2 °F 34.2 °F 37.4 °F 93% 29.68 in 6.2 mi SSW 6.9 mph - N/A   Partly Cloudy
5:50 AM 41.0 °F 36.4 °F 39.2 °F 93% 29.71 in 6.2 mi South 6.9 mph - N/A   Partly Cloudy
6:20 AM 41.0 °F 36.4 °F 37.4 °F 87% 29.71 in 6.2 mi SSW 6.9 mph - N/A   Partly Cloudy
6:50 AM 39.2 °F 35.0 °F 37.4 °F 93% 29.74 in 6.2 mi South 5.8 mph - N/A   Partly Cloudy
7:00 AM 39 °F - 36 °F 87% 29.74 in 6 mi South 4.5 mph - -   Scattered Clouds
7:20 AM 37.4 °F 33.8 °F 33.8 °F 87% 29.74 in 6.2 mi SSW 4.6 mph - N/A   Partly Cloudy
7:50 AM 37.4 °F 32.1 °F 35.6 °F 93% 29.77 in 6.2 mi SSW 6.9 mph - N/A   Partly Cloudy
8:20 AM 37.4 °F 34.9 °F 35.6 °F 93% 29.77 in 6.2 mi South 3.5 mph - N/A   Partly Cloudy
8:50 AM 39.2 °F 35.9 °F 35.6 °F 87% 29.80 in 6.2 mi South 4.6 mph - N/A   Partly Cloudy
9:20 AM 41.0 °F 38.0 °F 37.4 °F 87% 29.80 in 6.2 mi South 4.6 mph - N/A   Partly Cloudy
9:50 AM 42.8 °F 39.3 °F 39.2 °F 87% 29.80 in 6.2 mi SSW 5.8 mph - N/A   Partly Cloudy
10:00 AM 42 °F - 38 °F 83% 29.83 in 6 mi SSW 6.7 mph - -   Scattered Clouds
10:20 AM 44.6 °F 40.7 °F 41.0 °F 87% 29.83 in 6.2 mi SSW 6.9 mph - N/A   Partly Cloudy
10:50 AM 44.6 °F 40.7 °F 41.0 °F 87% 29.83 in 6.2 mi SSW 6.9 mph - N/A   Partly Cloudy
11:20 AM 46.4 °F 42.9 °F 41.0 °F 81% 29.86 in 6.2 mi SSW 6.9 mph - N/A   Partly Cloudy
11:50 AM 46.4 °F 42.9 °F 42.8 °F 87% 29.86 in 6.2 mi SSW 6.9 mph - N/A   Partly Cloudy
12:20 PM 50.0 °F - 44.6 °F 82% 29.86 in 6.2 mi SSW 6.9 mph - N/A   Partly Cloudy
12:50 PM 50.0 °F - 44.6 °F 82% 29.89 in 6.2 mi SSW 6.9 mph - N/A   Partly Cloudy
1:00 PM 50 °F - 45 °F 77% 29.89 in 12 mi SSW 6.7 mph - -   Scattered Clouds
1:20 PM 50.0 °F - 44.6 °F 82% 29.89 in 6.2 mi SW 6.9 mph - N/A   Partly Cloudy
1:50 PM 48.2 °F - 42.8 °F 82% 29.92 in 6.2 mi West 6.9 mph - N/A   Mostly Cloudy
2:20 PM 48.2 °F - 42.8 °F 82% 29.92 in 6.2 mi WSW 5.8 mph - N/A   Mostly Cloudy
2:50 PM 48.2 °F - 41.0 °F 76% 29.92 in 6.2 mi SW 4.6 mph - N/A   Mostly Cloudy
3:20 PM 50.0 °F - 42.8 °F 76% 29.95 in 6.2 mi SW 5.8 mph - N/A   Scattered Clouds
3:50 PM 50.0 °F - 42.8 °F 76% 29.95 in 6.2 mi West 6.9 mph - N/A   Scattered Clouds
4:00 PM 49 °F - 43 °F 71% 29.96 in 22 mi West 6.7 mph - -   Partly Cloudy
4:20 PM 48.2 °F - 41.0 °F 76% 29.98 in 6.2 mi West 8.1 mph - N/A   Scattered Clouds
4:50 PM 44.6 °F 40.2 °F 39.2 °F 81% 29.98 in 6.2 mi West 8.1 mph - N/A   Partly Cloudy
5:20 PM 44.6 °F 41.4 °F 39.2 °F 81% 30.01 in 6.2 mi WSW 5.8 mph - N/A   Partly Cloudy
5:50 PM 42.8 °F 39.3 °F 39.2 °F 87% 30.01 in 6.2 mi SW 5.8 mph - N/A   Partly Cloudy
6:20 PM 42.8 °F 40.1 °F 39.2 °F 87% 30.01 in 6.2 mi SSW 4.6 mph - N/A   Partly Cloudy
6:50 PM 42.8 °F 39.3 °F 39.2 °F 87% 30.04 in 6.2 mi South 5.8 mph - N/A   Partly Cloudy
7:00 PM 43 °F - 40 °F 83% 30.04 in 9 mi South 6.7 mph - -   Partly Cloudy
7:20 PM 42.8 °F 39.3 °F 39.2 °F 87% 30.04 in 4.3 mi South 5.8 mph - N/A   Scattered Clouds
7:50 PM 42.8 °F 37.5 °F 41.0 °F 93% 30.06 in 3.7 mi SSW 9.2 mph - N/A   Scattered Clouds
8:20 PM 42.8 °F 38.6 °F 39.2 °F 87% 30.06 in 3.7 mi SSW 6.9 mph - N/A   Scattered Clouds
8:50 PM 41.0 °F 36.4 °F 39.2 °F 93% 30.06 in 3.7 mi SSW 6.9 mph - N/A   Scattered Clouds
9:20 PM 41.0 °F 36.4 °F 37.4 °F 87% 30.09 in 3.7 mi SSW 6.9 mph - N/A   Scattered Clouds
9:50 PM 39.2 °F 35.0 °F 35.6 °F 87% 30.09 in 3.1 mi SSW 5.8 mph - N/A   Partly Cloudy
10:00 PM 39 °F - 36 °F 85% 30.11 in 3 mi SSW 6.7 mph - -   Mist
10:20 PM 39.2 °F 34.2 °F 37.4 °F 93% 30.09 in 3.1 mi SSW 6.9 mph - N/A   Partly Cloudy
10:50 PM 39.2 °F 34.2 °F 37.4 °F 93% 30.12 in 3.7 mi SSW 6.9 mph - N/A   Scattered Clouds
11:20 PM 41.0 °F 37.1 °F 39.2 °F 93% 30.12 in 4.3 mi SSW 5.8 mph - N/A   Scattered Clouds
11:50 PM 41.0 °F 38.0 °F 37.4 °F 87% 30.12 in 4.3 mi SSW 4.6 mph - N/A   Partly Cloudy